Voltar ao catálogo

STARLINK-5676

AtivoComunicaçõesVLEO
NORAD 55464·PAYLOAD·🇺🇸 United States

Lançado Feb 2, 2023 de Cape Canaveral Space Force Station

Loading…

Próximas Passagens (próximas 24 horas)

TLE

AtualizadoSource: CelesTrak SupGP

Época: Sep 14, 2026, 22:20 UTC

1 55464C 23015R   26257.93104167 -.00052528  00000+0 -19026-2 0  2578
2 55464  43.0019 339.9569 0001465 268.3338 117.2229 15.27604711    15

Acompanhe STARLINK-5676 em tempo real com AllMySat

Download on the App Store